www.pogodaiklimat.ru

Погода и климат >> Архив погоды >> Украина >> Жашков


ПОГОДА в Жашкове

  • Прогноз погоды в Жашкове
  • Монитор погоды в Жашкове
  • Климат города

АРХИВ ПОГОДЫ в Жашкове

Время (UTC), дата Ветер
(напр.,м/с)
 
Видим.   Явления Облачность Т
(С)
Тd
(С)
f
(%)
Тe
(С)
Тes
(С)
Комфортность P
(гПа)
Po
(гПа)
Тmin
(С)
Tmax
(С)
R
(мм)
R24
(мм)
S
(см)
00 17.06 штиль 0 8000 м слабый ливневой дождь 10/10 600 м
[Cb cap]
+20.0 +18.4 91 +23 +23 комфорт 1012.1 1012.0 0.3
03 17.06 штиль 0 10 км слабый ливневой дождь 10 баллов +18.9 +17.4 91 0.0
06 17.06 С 2 20 км {ливн. осадки} 10/0
[Ac As]
+20.8 +18.4 86 +26 +28 душно 1011.7 1012.0 +18.9 2
09 17.06 В 2 20 км 10/0
[Ci fib]
+25.2 +16.5 59 +29 +43 душно 1011.8 1012.0
12 17.06 СВ 2 20 км 10/0
[Ac As]
+26.6 +16.5 54 +30 +35 душно 1010.9 1011.0
15 17.06 Ю 3 20 км 10 баллов +24.1 +16.9 64 0.0
18 17.06 С 1 10 км {гроза, ливн. осадки} 10/0
[Ac As]
+18.9 +16.8 88 +21 +21 комфорт 1013.1 1013.0 +27.7 2
21 17.06 штиль 0 18 км 3/0
[Ac As]
+18.4 +16.8 90 +19 +19 1013.3 1013.0
00 18.06 штиль 0 8000 м дымка ясно +18.2 +16.9 92 +19 +19 1013.3 1013.0
03 18.06 штиль 0 10 км 6/0
[Ac lent Ci fib]
+17.6 +15.6 88 +18 +18 1013.5 1014.0
06 18.06 штиль 0 20 км 4/0
[Ci fib]
+23.0 +13.8 56 +26 +36 жарко 1013.7 1014.0 +17.0
09 18.06 СВ 1 20 км 4/0
[Ci fib]
+26.9 +13.0 42 +29 +47 жарко 1013.7 1014.0
12 18.06 СВ 2 20 км 3/3 1000 м
[Cu hum Ci fib]
+27.6 +12.7 40 +29 +40 жарко 1013.6 1014.0
15 18.06 В 2 20 км ясно +27.1 +12.6 41 +29 +33 жарко 1013.2 1013.0
18 18.06 штиль 0 20 км 3/0
[Ci fib]
+23.2 +13.7 55 +27 +27 душно 1014.5 1015.0 +28.3
21 18.06 штиль 0 17 км ясно +19.7 +14.6 72 +21 +21 комфорт 1015.9 1016.0
00 19.06 штиль 0 16 км ясно +18.2 +14.6 80 +18 +18 1016.2 1016.0
03 19.06 штиль 0 20 км ясно +16.1 +13.8 86 +16 +17 1017.2 1017.0
06 19.06 штиль 0 20 км ясно +23.9 +13.9 54 +26 +37 жарко 1017.0 1017.0 +16.1
09 19.06 С 1 20 км ясно +27.2 +14.3 45 +29 +50 жарко -339.0 1017.0
12 19.06 С 1 20 км 5/5 1000 м
[Cu med, cong]
+28.6 +14.2 41 +31 +39 жарко 1016.3 1016.0
15 19.06 СЗ 1 20 км 5/3 1000 м
[Cu hum Ac cast]
+28.4 +14.2 42 +31 +34 душно 1015.5 1016.0
18 19.06 штиль 0 20 км 4/0
[Ac trans Ci fib]
+26.1 +16.3 55 +30 +30 душно 1015.9 1016.0 +29.5
21 19.06 штиль 0 19 км ясно +22.2 +18.4 79 +27 +27 душно 1016.9 1017.0
00 20.06 штиль 0 18 км ясно +20.5 +17.6 83 +24 +24 комфорт 1017.5 1018.0
03 20.06 СЗ 1 20 км 10/0
[Ci fib]
+19.5 +17.0 85 +23 +23 комфорт 1018.3 1018.0
06 20.06 штиль 0 20 км 3/0
[Ci fib]
+24.2 +15.1 57 +27 +37 жарко 1018.7 1019.0 +19.5
09 20.06 СЗ 2 20 км 3/1 1000 м
[Cu hum Ci fib]
+26.7 +13.6 44 +29 +43 жарко 1018.9 1019.0
12 20.06 СЗ 3 20 км 5/5 1000 м
[Cu med, cong]
+28.1 +12.9 39 +30 +36 жарко 1018.1 1018.0
15 20.06 СЗ 2 20 км 3/3 1000 м
[Cu med, cong]
+26.7 +13.8 45 +29 +32 жарко 1017.7 1018.0
18 20.06 СЗ 1 20 км 3/0
[Ci fib]
+24.1 +14.2 54 +27 +27 жарко 1017.5 1018.0 +29.6
21 20.06 штиль 0 19 км 3/0
[Ci fib]
+19.2 +15.3 78 +21 +21 комфорт 1018.7 1019.0
00 21.06 штиль 0 18 км ясно +17.5 +14.9 85 +17 +17 1018.9 1019.0
03 21.06 штиль 0 10 км ясно +16.4 +14.5 89 +16 +17 1019.0 1019.0
06 21.06 штиль 0 20 км ясно +23.6 +13.7 54 +26 +37 жарко 1018.0 1018.0 +16.0
09 21.06 штиль 0 20 км 3/3 1000 м
[Cu hum]
+27.0 +13.1 42 +29 +45 жарко -338.4 1017.0
12 21.06 СЗ 1 20 км 3/0
[Ci fib]
+29.1 +13.2 38 +31 +47 жарко 1014.5 1015.0
15 21.06 штиль 0 20 км 5/0
[Ci fib]
+28.6 +13.0 38 +30 +36 жарко 1012.8 1013.0
18 21.06 штиль 0 20 км 5/0
[Ci fib]
+25.1 +14.4 51 +28 +28 жарко 1012.3 1012.0 +29.5
21 21.06 штиль 0 19 км 3/0
[Ci fib]
+20.2 +15.9 76 +23 +23 комфорт 1012.3 1012.0
00 22.06 штиль 0 18 км 1/0
[Ci fib]
+18.9 +16.1 84 +20 +20 1010.8 1011.0
03 22.06 штиль 0 10 км 5/0
[Ci fib]
+18.4 +15.0 81 +19 +20 -336.5 1011.0
06 22.06 ЮВ 1 20 км 8/0
[Ci fib]
+25.1 +16.0 57 +28 +36 жарко 1009.3 1009.0 +18.0
09 22.06 Ю 1 20 км 10/5 1000 м
[Cu med, cong Ci fib]
+29.5 +15.9 44 +33 +41 душно 1008.2 1008.0
12 22.06 ЮВ 2 20 км 10/8 1080 м
[Cu med, cong Ci fib]
+30.1 +15.5 41 +33 +35 душно 1006.7 1007.0
15 22.06 СЗ 3 10 км гроза без осадков 10 баллов +19.5 +17.5 88 0.0
18 22.06 СЗ 3 10 км гроза без осадков {ливн. осадки} 10/10 630 м
[Cb cap]
+17.0 +15.3 90 +17 +17 1010.8 1011.0 +31.5 20
21 22.06 С 2 12 км в посл. час ливневой дождь 10 баллов +14.8 +13.2 90 1347.9
00 23.06 С 1 12 км в посл. час ливневой дождь {гроза} 5/5 1000 м
[Sc]
+14.5 +12.9 90 +15 +15 1010.0 1010.0 6.0
03 23.06 СЗ 1 10 км в посл. час ливневой дождь 10 баллов +13.8 +12.4 91 0.0
06 23.06 штиль 0 4000 м дымка 10/0
[Ac As]
+14.1 +13.6 97 +14 +17 1009.2 1009.0 +13.6 6
09 23.06 З 2 4000 м дымка 10 баллов +13.9 +12.6 92 673.1
12 23.06 С 2 4000 м дымка 10/10 600 м
[Frnb]
+13.6 +11.9 89 +13 +13 1009.9 1010.0
15 23.06 СЗ 2 4000 м дымка 10 баллов +12.7 +11.4 92 0.0
18 23.06 СЗ 2 4000 м дымка 10 баллов +11.7 +10.4 92 0.0 +14.2
21 23.06 З 2 17 км 5/5 600 м
[Frnb]
+11.5 +9.7 89 +10 +10 1013.3 1013.0

 

Местоположение метеостанции Жашков (Черкасская область, Украина): широта 49.25 долгота 30.10 высота над уровнем моря 224 м.

В архиве по умолчанию представлена погода в Жашкове за последнюю неделю. Архивные данные за месяц целиком и за предыдущие месяцы, начиная с января 2011 года, Вы можете получить, выбрав интересующий диапазон дат из раскрывающегося списка и нажав кнопку "Ввод!".


*Определитесь, кто Вы:
робот инопланетянин человек

Внимание! Время в таблицах - всемирное. Для получения местного времени необходимо прибавить поправку, которая в Жашкове равна 2 ч.

Смотрите также архив погоды в соседних городах и на ближайших метеорологических станциях:

Погода в Умани (Черкасская область, Украина) (54 км)
Погода в Белой Церкви (Киевская область, Украина) (56 км)
Погода в Звенигородке (Черкасская область, Украина) (61 км)
Погода в Гайсине (Винницкая область, Украина) (71 км)
Погода в Мироновке (Киевская область, Украина) (80 км)
Погода в Фастове (Киевская область, Украина) (93 км)
Погода в Гайвороне (Кировоградская область, Украина) (102 км)
Погода в Виннице (Винницкая область, Украина) (109 км)
Погода в Белополе (Винницкая область, Украина) (109 км)
Погода в Каневе (Черкасская область, Украина) (116 км)

Пояснения к столбцам:

Ветер - указаны скорость ветра в м/с - средняя за 10 мин, порывы в срок и между сроками (в фигурных скобках) и направление, откуда дует ветер: С - северный, СВ - северо-восточный, В - восточный, ЮВ - юго-восточный, Ю - южный, ЮЗ - юго-западный, З - западный, СЗ - северо-западный.
Видимость - горизонтальная дальность видимости в метрах или километрах. При видимости от 1 до 10 км при отсутствии осадков обычно наблюдается дымка, при ухудшении видимости до 1 км и менее - туман. В сухую погоду видимость может ухудшаться дымом, пылью или мглою.
Явления - указаны атмосферные явления, наблюдавшиеся в срок или в последний час перед сроком; фигурными скобками обозначены явления, наблюдавшиеся между сроками (за 1-3 часа до срока); квадратными скобками обозначены град или гололедные отложения с указанием их диаметра в мм.
Облачность - указаны через наклонную черту общая и нижняя облачность в баллах и высота нижней границы облаков в метрах; квадратными скобками обозначены формы облаков: Ci - перистые, Cs - перисто-слоистые, Cc - перисто-кучевые, Ac - высококучевые, As - высокослоистые, Sc - слоисто-кучевые, Ns - слоисто-дождевые, Cu - кучевые, Cb - кучево-дождевые. Подробнее классификацию облаков см. в Атласе облаков (PDF).
T - Температура воздуха - температура, измеренная на высоте 2 м над землей.
Td - Температура точки росы - температура, при понижении до которой содержащийся в воздухе водяной пар достигнет насыщения.
f - Относительная влажность воздуха - влажноcть воздуха, измеренная на высоте 2 м над землей.
Te - Эффективная температура - температура, которую ощущает одетый по сезону человек в тени. Характеристика душности погоды. При расчете учитывается влияние влажности воздуха и скорости ветра на теплоощущения человека.
Tes - Эффективная температура на солнце - температура, которую ощущает человек, с поправкой на солнечный нагрев. Характеристика знойности погоды. Зависит от высоты солнца над горизонтом, облачности и скорости ветра. Ночью, в пасмурную погоду, а также при ветре 12 м/с и более поправка равна нулю.
P - Атмосферное давление - приведенное к уровню моря атмосферное давление.
Po - Атмосферное давление - измеренное на уровне метеостанции атмосферное давление.
Tmin - Минимальная температура - минимум температуры воздуха на высоте 2 м над землей.
Tmax - Максимальная температура - максимум температуры воздуха на высоте 2 м над землей.
R - Количество осадков - Количество выпавших осадков за период времени, мм. При наведении курсора мыши на число - период времени, за который выпало указанное количество осадков.
R24 - Количество осадков - Количество выпавших осадков за 24 часа, мм.
S - Снежный покров - Высота снежного покрова, см. При наведении курсора мыши на число - состояние снежного покрова и степень покрытия местности в баллах.